Location: Antioch
(38.0049°N, 121.8058°W)
Time: 07:11:58
(UTC+00:00)

Cosmos 372 Rocket - Pass Details

Date: 11 February 2026
Orbit: 732 x 763 km, 74.1° (Epoch: 9 March)

Event Time Altitude Azimuth Distance (km) Brightness Sun altitude
Rises 14:25:59 0° 194° (SSW) 3,142 7.2 -7.6°
Reaches altitude 10° 14:28:18 10° 193° (SSW) 2,225 6.4 -7.2°
Maximum altitude 14:33:20 81° 107° (ESE) 749 4.1 -6.2°
Drops below altitude 10° 14:38:26 10° 20° (NNE) 2,253 6.5 -5.2°
Sets 14:40:48 0° 20° (NNE) 3,184 7.3 -4.8°
